Flag for Mexico Weather past 2 weeks in Matamoros, Tamaulipas, Mexico

Now
80 °F

Fog.


Feels Like: 86 °F
Forecast: 79 / 90 °F
Wind: 9 mph from Southeast

Location: Brownsville / South Padre Island International Airport

Current Time: May 26, 2015 at 3:57:15 AM

Latest Report: May 26, 2015 at 2:53 AM


Visibility: 4 mi

Pressure: 29.86 "Hg

Humidity: 90%

Dew point: 77 °F

Location of MatamorosLocation

Historic Weather in Matamoros — Graph

°F

Matamoros temperature yesterday

Maximum temperature yesterday: 89 °F (at 12:02 PM)
Minimum temperature yesterday: 77 °F (at 12:53 AM)
Average temperature yesterday: 83 °F

Past Weeks' High & Low Weather Summary

 TemperatureHumidityPressure
High90 °F (May 18, 1:53 PM)97% (May 22, 1:53 AM)30.07 "Hg (May 22, 1:53 AM)
Low69 °F (May 24, 3:55 AM)57% (May 14, 2:53 PM)29.78 "Hg (May 25, 6:53 PM)
Average81 °F81%29.93 "Hg
* Reported May 11 2:53 AM — May 26 2:53 AM, Matamoros, Weather by CustomWeather, © 2015

Note: Actual official high and low records may vary slightly from our data, if they occured in-between our weather recording intervals... More about our weather records

Advertising

Matamoros weather history for previous 24 hours

 ConditionsComfort  
Time TempWeatherWind HumidityBarometerVisibility
2:53 AM
Tue, May 26
80 °FFog.9 mph90%29.86 "Hg4 mi
1:53 AM81 °FFog.12 mph88%29.87 "Hg5 mi
12:53 AM81 °FFog.12 mph88%29.88 "Hg5 mi
11:53 PM
Mon, May 25
81 °FFog.9 mph88%29.88 "Hg6 mi
10:53 PM82 °FOvercast.15 mph85%29.86 "Hg7 mi
9:53 PM81 °FOvercast.15 mph88%29.83 "Hg7 mi
8:53 PM82 °FOvercast.16 mph85%29.80 "Hg8 mi
7:53 PM83 °FMore clouds than sun.21 mph82%29.78 "Hg7 mi
6:53 PM84 °FOvercast.18 mph80%29.78 "Hg8 mi
5:53 PM87 °FBroken clouds.18 mph72%29.79 "Hg9 mi
5:02 PM87 °FBroken clouds.22 mph72%29.80 "Hg8 mi
4:53 PM86 °FMostly cloudy.18 mph75%29.80 "Hg8 mi
3:53 PM88 °FPartly sunny.22 mph70%29.82 "Hg9 mi
2:53 PM87 °FCloudy.22 mph72%29.84 "Hg10 mi
1:53 PM86 °FCloudy.23 mph72%29.85 "Hg10 mi
12:53 PM88 °FBroken clouds.28 mph70%29.85 "Hg10 mi
12:02 PM89 °FScattered clouds.22 mph65%29.87 "Hg10 mi
11:53 AM88 °FPartly sunny.29 mph67%29.86 "Hg10 mi
10:53 AM85 °FCloudy.24 mph75%29.86 "Hg10 mi
9:53 AM83 °FMostly cloudy.15 mph79%29.87 "Hg9 mi
8:53 AM83 °FMostly cloudy.20 mph79%29.86 "Hg9 mi
7:53 AM80 °FOvercast.14 mph87%29.86 "Hg8 mi
6:53 AM79 °FPassing clouds.13 mph90%29.85 "Hg8 mi
5:53 AM78 °FPassing clouds.13 mph90%29.84 "Hg10 mi
4:53 AM77 °FClear.9 mph90%29.84 "Hg10 mi
3:53 AM77 °FClear.9 mph94%29.83 "Hg10 mi
Weather by CustomWeather, © 2015

See weather overviewHow to use our weather pages